Location: Feigenhofen
(48.4939°N, 10.7793°E)
Time: 22:59:47
(UTC+00:00)

USA 215 - Pass Details

Date: 26 May 2022
Orbit: 1099 x 1108 km, 123.0° (Epoch: 10 June)

Event Time Altitude Azimuth Distance (km) Brightness Sun altitude
Rises 01:59:20 0° 76° (ENE) 3,919 7.1 -11.2°
Reaches altitude 10° 02:01:56 10° 70° (ENE) 2,962 6.5 -10.9°
Maximum altitude 02:08:00 43° 2° (N) 1,518 4.5 -10.3°
Drops below altitude 10° 02:14:04 10° 294° (WNW) 2,968 5.4 -9.6°
Sets 02:16:40 0° 288° (WNW) 3,928 5.9 -9.3°
